Showing default

DTUSAT 2, 40030

Orbit data source: Space-Track

DTUSAT 2, 40030 is a payload satellite owned by DTU (DK) in SSO that was launched on Thu, 19 Jun 2014 UTC via a DNEPR launch vehicle from the Orenburg, Russia (OREN). Payload-class satellites include a variety of spacecraft equipped with specific instruments for various scientific and technological missions. These include communications satellites like Starlink; space stations such as the ISS; scientific satellites like the Hubble; Earth observation satellites from companies like Planet Labs, Umbra, and HawkEye 360; GPS; miniature CubeSats for education and research; and military/defense satellites.

Loading next visibility...
Identifier
40030, 2014-033W
Orbit
SSO
Country
Flag of DKDK / DEN
Related business
Manufacturer
DTU
Mission
Operational Amateur Communications
Bus & Motor
CUBESAT 1U, Unknown motor
Mass
1.333 kg wet, 1.333 kg dry
Launch date (UTC)
2014-06-19 (12 years ago)
Launch vehicle
DNEPR
Launch site
Orenburg, Russia (OREN)
Object type
Payload
Rocket body
Debris
Shape & HBR
Box, 0.1 m
Radar Cross Section
0.015 m², Small (<0.1 m²)

Expand to show TLE details & history
Last TLE update: 15 hours ago

TLE from 15 hours ago
0 DTUSAT 2
1 40030U 14033W   26123.91142272  .00007949  00000-0  43600-3 0  9995
2 40030  98.0871 118.8509 0008880  37.8443 322.3409 15.14438997645983
Epoch: 2026-05-03T21:52Z
TLE epoch observation values (Epoch: 2026-05-03T21:52:26.923Z)
Latitude
-0.00008°
Longitude
-71.06945°
Altitude
520.894 km
Speed
7.606 km/s
True Right ascension
07h 55m 24s
True Declination
0° 00' 00"
Sunlit
Object was in daylight at epoch
Visualization orbit readout
Latitude
Unknown
Longitude
Unknown
Altitude
Unknown
Speed
Unknown
Apparent Right ascension
Unknown
Apparent Declination
Unknown
Sunlit
N/A
Visualization observer readout
Local Sidereal Time
20:12:58
Azimuth
Unknown
Elevation
Unknown
Doppler factor
Unknown
Orbital elements
Apogee altitude
525.811 km
Perigee altitude
513.561 km
Semi-major axis
6,897.823 km
Eccentricity
0.00089
Inclination
98.0871°
RAAN
118.8509°
Arg. of periapsis
37.8443°
True anomaly
322.27868°
Mean anomaly
322.3409°
Eccentric anomaly
322.30979°
Mean motion
3.78857 °/min
Orbital period
95.02 mins
BSTAR
0.000436
Loading maneuver chart data...
Computing Atmospheric mass density...
Loading historical data...
Loading historical data...
Loading historical data...
Loading historical data...
Loading historical data...
Loading historical data...
Loading historical data...

Documentation

Showing up to 5 results
|